Regional Weather Roundup
Issued by NWS Northern Indiana

Home | Current Version | Previous Version | Graphics & Text | Print | Product List | Glossary On
Versions: 1 2 3 4 5 6 7 8 9 10 11 12 13 14 15 16 17 18 19 20 21 22 23 24 25 26 27 28 29 30 31 32 33 34 35 36 37 38 39 40 41 42 43 44 45 46 47 48 49 50
000
ASUS43 KIWX 310200
RWRIWX

KIWX WEATHER ROUNDUP
NATIONAL WEATHER SERVICE NORTHERN INDIANA
1000 PM EDT SAT AUG 30 2014

NOTE: "FAIR" INDICATES FEW OR NO CLOUDS BELOW 12,000 FEET WITH NO
SIGNIFICANT WEATHER AND/OR OBSTRUCTIONS TO VISIBILITY.

* THESE STATIONS ARE NOT UNDER NWS QUALITY CONTROL. THEY ALSO MAY NOT
  REPORT WEATHER SUCH AS PRECIPITATION OR FOG.

INZ001>027-310300-
NORTHERN INDIANA

CITY           SKY/WX    TMP DP  RH WIND       PRES   REMARKS
GARY*          PTCLDY    73  70  88 S6        29.91R
VALPARAISO     CLOUDY    71  68  90 S6        29.93R
KNOX*          CLOUDY    74  70  87 S10G18    29.91F
SOUTH BEND     TSTM      74  71  91 W8        29.91S
GOSHEN         CLOUDY    76  69  79 S13       29.93R
MONTICELLO*    MOCLDY    74  70  87 S10G17    29.93S
ANGOLA*        CLOUDY    75  70  83 SW14      29.93S
FORT WAYNE     CLOUDY    74  70  87 SW10      29.97R
PERU/GRISSOM   CLOUDY    74  74 100 SW13      29.97R

$$
INZ028>050-310300-
CENTRAL INDIANA

CITY           SKY/WX    TMP DP  RH WIND       PRES   REMARKS
LAFAYETTE      MOCLDY    74  70  87 S7        29.94R
KOKOMO*        CLOUDY    73  68  83 SW14      29.97R
MUNCIE*        CLOUDY    75  69  81 S12       30.00R
INDIANAPOLIS   CLOUDY    73  69  87 S13       29.98R

$$
MIZ043>046-050>051-056>058-064>065-071>073-077>080-310300-
SOUTHWEST LOWER MICHIGAN

CITY           SKY/WX    TMP DP  RH WIND       PRES   REMARKS
BATTLE CREEK   CLOUDY    72  66  81 SW12      29.91S
BENTON HARBOR  MOCLDY    72  70  93 S5        29.89R
COLDWATER*     CLOUDY    73  71  94 SW5       29.93R
HILLSDALE*     CLOUDY    76  71  83 SW8       29.94S
HOLLAND        PTCLDY    74  68  81 SW7       29.89R
GRAND RAPIDS   MOCLDY    74  70  87 SW7       29.88R
KALAMAZOO      CLOUDY    69  66  90 SW6       29.91R FOG
STURGIS*       CLOUDY    73  72  94 S10       29.92R
THREE RIVERS*  RAIN      71  69  92 W5        29.92F

$$
OHZ001>008-015>018-024>025-310300-
NORTHWEST OHIO

CITY           SKY/WX    TMP DP  RH WIND       PRES   REMARKS
DEFIANCE       CLOUDY    77  68  73 SW13      29.95R
FINDLAY        CLOUDY    77  68  73 SW9       29.97R
TOLEDO EXPRESS CLOUDY    76  68  76 SW12G21   29.95R
TOLEDO METCALF CLOUDY    78  67  68 SW12      29.97R
LIMA           CLOUDY    77  69  76 S9        30.00R

$$
&&



USA.gov is the U.S. government's official web portal to all federal, state and local government web resources and services.